Probability
0 0 0 3 3 0 0 0 3 13 19 32 48 55 58 61 61 52 45 19 3 16 3 0 0 0 0 0 0 0 0 0 0 0 0 0 0 0 0 0 0 0 0
0 0 0 0 0 0 0 0 0 10 16 32 45 39 29 19 23 23 13 13 0 0 0 0 0 0 0 0 0 0 0 0 0 0 0 0 0 0 0 0 0 0 0
0 0 0 0 0 0 0 0 0 0 0 3 6 3 0 0 0 0 0 0 0 0 0 0 0 0 0 0 0 0 0 0 0 0 0 0 0 0 0 0 0 0 0
0 0 0 0 0 0 0 0 0 0 0 0 0 3 3 0 0 0 0 0 0 0 0 0 0 0 0 0 0 0 0 0 0 0 0 0 0 0 0 0 0 0 0
0 0 0 0 0 0 0 0 0 0 0 0 0 0 0 0 0 0 0 0 0 0 0 0 0 0 0 0 0 0 0 0 0 0 0 0 0 0 0 0 0 0 0
0 0 0 0 0 0 0 0 0 0 0 0 0 0 0 0 0 0 0 0 0 0 0 0 0 0 0 0 0 0 0 0 0 0 0 0 0 0 0 0 0 0 0
0 0 0 0 0 0 0 0 0 0 0 0 0 0 0 0 0 0 0 0 0 0 0 0 0 0 0 0 0 0 0 0 0 0 0 0 0 0 0 0 0 0 0
0 0 0 0 0 0 0 0 0 0 0 0 0 0 0 0 0 0 0 0 0 0 0 0 0 0 0 0 0 0 0 0 0 0 0 0 0 0 0 0 0 0 0
0 0 0 0 0 0 0 0 0 0 0 0 0 0 0 0 0 0 0 0 0 0 0 0 0 0 0 0 0 0 0 0 0 0 0 0 0 0 0 0 0 0 0
0 0 0 0 0 0 0 0 0 0 0 0 0 0 0 0 0 0 0 0 0 0 0 0 0 0 0 0 0 0 0 0 0 0 0 0 0 0 0 0 0 0 0
0 0 0 0 0 0 0 0 0 0 0 0 0 0 0 0 0 0 0 0 0 0 0 0 0 0 0 0 0 0 0 0 0 0 0 0 0 0 0 0 0 0 0
0 0 0 0 0 0 0 0 0 0 0 0 0 0 0 0 0 0 0 0 0 0 0 0 0 0 0 0 0 0 0 0 0 0 0 0 0 0 0 0 0 0 0
0 0 0 0 0 0 0 0 0 0 0 0 0 0 0 0 0 0 0 0 0 0 0 0 0 0 0 0 0 0 0 0 0 0 0 0 0 0 0 0 0 0 0
0 0 0 0 0 0 0 0 0 0 0 0 0 0 0 0 0 0 0 0 0 0 0 0 0 0 0 0 0 0 0 0 0 0 0 0 0 0 0 0 0 0 0
0 0 0 0 0 0 0 0 0 0 0 0 0 0 0 0 0 0 0 0 0 0 0 0 0 0 0 0 0 0 0 0 0 0 0 0 0 0 0 0 0 0 0
0 0 0 0 0 0 0 0 0 0 0 0 0 0 0 0 0 0 0 0 0 0 0 0 0 0 0 0 0 0 0 0 0 0 0 0 0 0 0 0 0 0 0
0 0 0 0 0 0 0 0 0 0 0 0 0 0 0 0 0 0 0 0 0 0 0 0 0 0 0 0 0 0 0 0 0 0 0 0 0 0 0 0 0 0 0
0 0 0 0 0 0 0 0 0 0 0 0 0 0 0 0 0 0 0 0 0 0 0 0 0 0 0 0 0 0 0 0 0 0 0 0 0 0 0 0 0 0 0
0 0 0 0 0 0 0 0 0 0 0 0 0 0 0 0 0 0 0 0 0 0 0 0 0 0 0 0 0 0 0 0 0 0 0 0 0 0 0 0 0 0 0
0 0 0 0 0 0 0 0 0 0 0 0 0 0 0 0 0 0 0 0 0 0 0 0 0 0 0 0 0 0 0 0 0 0 0 0 0 0 0 0 0 0 0
0 0 0 0 0 0 0 0 0 0 0 0 0 0 0 0 0 0 0 0 0 0 0 0 0 0 0 0 0 0 0 0 0 0 0 0 0 0 0 0 0 0 0
0 0 0 0 0 0 0 0 0 0 0 0 0 0 0 0 0 0 0 0 0 0 0 0 0 0 0 0 0 0 0 0 0 0 0 0 0 0 0 0 0 0 0
0 0 0 0 0 0 0 0 0 0 0 0 0 0 0 0 0 0 0 0 0 0 0 0 0 0 0 0 0 0 0 0 0 0 0 0 0 0 0 0 0 0 0
0 0 0 0 0 0 0 0 0 0 0 0 0 0 0 0 0 0 0 0 0 0 0 0 0 0 0 0 0 0 0 0 0 0 0 0 0 0 0 0 0 0 0
0 0 0 0 0 0 0 0 0 0 0 0 0 0 0 0 0 0 0 0 0 0 0 0 0 0 0 0 0 0 0 0 0 0 0 0 0 0 0 0 0 0 0
0 0 0 0 0 0 0 0 0 0 0 0 0 0 0 0 0 0 0 0 0 0 0 0 0 0 0 0 0 0 0 0 0 0 0 0 0 0 0 0 0 0 0
Height
5859 5856 5851 5844 5837 5828 5822 5816 5809 5807 5809 5809 5811 5814 5815 5817 5818 5818 5817 5816 5816 5816 5816 5816 5817 5817 5817 5818 5818 5819 5819 5820 5821 5822 5822 5821 5820 5819 5817 5816 5815 5814 5813
5856 5853 5848 5841 5835 5827 5821 5814 5809 5807 5806 5806 5807 5808 5808 5810 5812 5812 5811 5810 5810 5810 5810 5810 5811 5811 5811 5812 5813 5814 5814 5815 5816 5817 5817 5817 5816 5814 5813 5811 5810 5809 5808
5850 5847 5843 5837 5832 5825 5818 5814 5810 5806 5804 5803 5803 5803 5803 5804 5806 5806 5805 5804 5804 5803 5804 5804 5804 5805 5805 5806 5807 5808 5809 5809 5810 5811 5812 5812 5811 5809 5808 5807 5805 5804 5803
5843 5840 5836 5831 5826 5821 5814 5809 5804 5802 5800 5799 5798 5798 5799 5800 5800 5800 5799 5798 5798 5797 5797 5797 5798 5798 5799 5799 5800 5801 5802 5803 5804 5805 5806 5806 5806 5805 5803 5801 5800 5798 5796
5837 5833 5829 5824 5820 5815 5810 5805 5801 5798 5795 5794 5793 5793 5793 5793 5792 5792 5791 5791 5791 5790 5790 5791 5791 5791 5791 5792 5793 5794 5796 5796 5797 5798 5798 5799 5800 5800 5800 5797 5794 5793 5791
5829 5826 5821 5816 5811 5807 5803 5799 5796 5793 5790 5787 5786 5786 5785 5785 5784 5783 5783 5782 5782 5782 5783 5783 5783 5783 5783 5783 5784 5785 5787 5789 5790 5790 5791 5792 5792 5793 5793 5792 5790 5787 5785
5822 5818 5812 5807 5801 5796 5793 5790 5787 5785 5782 5779 5778 5777 5776 5775 5774 5773 5772 5771 5771 5772 5773 5774 5775 5774 5774 5775 5775 5776 5778 5780 5781 5782 5783 5784 5785 5785 5786 5786 5785 5782 5780
5814 5808 5803 5797 5792 5787 5782 5779 5776 5773 5770 5768 5766 5764 5763 5762 5761 5760 5760 5759 5759 5759 5760 5762 5764 5764 5765 5765 5766 5767 5768 5770 5772 5773 5775 5776 5776 5777 5778 5779 5779 5777 5774
5802 5797 5791 5785 5779 5774 5770 5766 5762 5758 5755 5752 5749 5747 5745 5744 5744 5743 5743 5743 5743 5744 5745 5747 5749 5751 5753 5754 5755 5756 5758 5760 5762 5764 5765 5767 5767 5768 5769 5770 5772 5772 5769
5789 5783 5776 5771 5765 5759 5753 5748 5744 5740 5737 5734 5731 5727 5725 5723 5723 5723 5723 5724 5725 5726 5728 5730 5732 5735 5738 5740 5743 5745 5746 5749 5751 5753 5755 5758 5759 5760 5761 5762 5763 5764 5764
5779 5771 5764 5757 5750 5742 5735 5729 5723 5718 5713 5710 5707 5705 5702 5700 5699 5699 5699 5701 5703 5706 5708 5711 5713 5716 5720 5724 5728 5732 5734 5736 5739 5742 5745 5748 5750 5751 5752 5754 5755 5756 5757
5768 5760 5752 5743 5734 5725 5717 5709 5702 5696 5690 5684 5680 5676 5674 5673 5672 5672 5673 5675 5678 5681 5685 5689 5693 5696 5700 5705 5711 5716 5720 5723 5726 5730 5733 5737 5740 5742 5743 5745 5747 5748 5750
5757 5748 5738 5729 5719 5709 5700 5690 5682 5674 5668 5661 5656 5652 5648 5645 5643 5643 5644 5647 5650 5655 5659 5665 5670 5674 5679 5685 5692 5698 5704 5709 5713 5717 5721 5725 5729 5732 5734 5737 5738 5740 5742
5743 5733 5723 5713 5703 5692 5682 5673 5664 5656 5649 5643 5638 5634 5630 5626 5623 5620 5619 5620 5622 5626 5632 5638 5644 5651 5657 5663 5671 5678 5686 5692 5698 5703 5708 5712 5717 5721 5725 5727 5730 5732 5734
5731 5720 5708 5697 5686 5676 5666 5656 5648 5640 5633 5628 5623 5619 5614 5611 5608 5605 5603 5601 5601 5602 5606 5611 5618 5626 5633 5641 5648 5657 5666 5675 5682 5689 5694 5700 5704 5709 5714 5717 5720 5723 5726
5717 5705 5693 5682 5672 5661 5651 5641 5632 5624 5617 5611 5607 5603 5599 5596 5594 5592 5590 5589 5588 5587 5588 5590 5595 5602 5610 5618 5626 5635 5646 5656 5665 5674 5681 5687 5692 5697 5703 5707 5711 5715 5718
5702 5691 5680 5668 5657 5645 5634 5624 5614 5605 5597 5592 5587 5584 5581 5579 5578 5577 5577 5577 5577 5577 5577 5578 5580 5583 5589 5596 5604 5613 5624 5636 5647 5657 5666 5673 5679 5685 5691 5697 5701 5706 5710
5690 5678 5666 5653 5640 5626 5613 5602 5592 5583 5575 5569 5565 5562 5560 5560 5560 5560 5561 5562 5563 5565 5566 5567 5569 5571 5575 5578 5584 5592 5602 5615 5628 5640 5650 5659 5666 5673 5680 5686 5691 5697 5702
5678 5665 5651 5637 5621 5606 5591 5578 5568 5558 5550 5545 5541 5540 5538 5539 5540 5541 5544 5546 5548 5551 5554 5556 5559 5561 5564 5566 5570 5575 5584 5595 5608 5621 5634 5644 5653 5661 5668 5675 5681 5687 5693
5668 5654 5639 5623 5605 5588 5572 5558 5546 5535 5526 5520 5517 5516 5516 5517 5519 5522 5525 5529 5532 5536 5540 5544 5547 5550 5554 5556 5560 5564 5570 5579 5590 5604 5617 5629 5639 5648 5656 5664 5671 5678 5684
5658 5643 5627 5609 5590 5572 5557 5542 5529 5517 5507 5500 5497 5495 5496 5497 5499 5503 5507 5512 5516 5521 5526 5531 5536 5540 5544 5547 5551 5555 5559 5564 5573 5586 5601 5614 5625 5635 5644 5652 5660 5668 5676
5650 5635 5617 5598 5579 5560 5544 5530 5515 5503 5493 5485 5481 5479 5478 5479 5482 5486 5491 5496 5501 5507 5513 5518 5524 5529 5534 5539 5543 5548 5552 5555 5562 5573 5587 5601 5613 5623 5632 5641 5649 5658 5667
5642 5626 5609 5590 5571 5552 5535 5520 5506 5493 5483 5475 5470 5466 5465 5466 5468 5471 5475 5481 5487 5493 5500 5507 5513 5519 5525 5530 5536 5541 5545 5549 5553 5563 5576 5589 5601 5612 5621 5630 5639 5649 5657
5636 5621 5603 5584 5565 5547 5530 5514 5500 5487 5477 5469 5463 5458 5456 5456 5457 5459 5464 5469 5475 5481 5489 5496 5503 5510 5517 5523 5529 5535 5540 5544 5548 5555 5565 5578 5590 5601 5611 5620 5630 5639 5649
5631 5615 5598 5580 5561 5544 5528 5513 5497 5484 5473 5465 5458 5453 5450 5449 5450 5452 5455 5460 5466 5472 5479 5487 5494 5502 5509 5516 5523 5529 5534 5539 5544 5550 5558 5569 5581 5591 5601 5612 5622 5631 5640
5628 5613 5596 5578 5560 5544 5529 5514 5499 5485 5472 5462 5455 5449 5447 5446 5446 5448 5451 5455 5460 5466 5473 5480 5488 5495 5503 5510 5517 5524 5529 5534 5540 5545 5552 5561 5572 5583 5593 5604 5614 5624 5633
Wind_Speed
47 49 50 53 53 52 51 46 32 21 18 16 15 16 19 20 21 22 21 21 19 19 18 17 16 15 15 15 15 15 16 16 16 15 15 15 14 13 14 15 16 17 19
44 44 45 47 47 46 44 36 26 19 18 18 18 18 19 20 19 19 19 19 19 19 18 18 17 16 15 15 15 16 17 18 18 17 16 16 15 14 13 13 14 16 18
35 37 39 41 41 40 37 35 28 25 21 20 20 20 17 16 16 17 16 16 17 17 18 18 17 17 16 16 17 17 18 20 20 20 19 18 18 17 16 15 15 15 17
33 35 37 38 38 37 36 35 32 29 25 24 24 21 19 19 18 18 16 15 16 18 18 19 19 19 19 19 19 19 20 21 23 23 22 21 19 19 20 18 16 15 17
31 35 37 39 40 38 36 34 34 34 32 31 29 26 24 24 23 22 20 19 19 20 20 21 22 22 22 22 22 22 23 24 25 26 25 24 22 20 19 21 19 17 17
32 36 39 42 43 42 40 39 39 39 39 39 37 35 33 31 31 30 28 26 25 24 24 24 24 25 25 26 25 25 26 27 27 27 27 26 25 23 20 20 21 20 19
33 38 43 45 47 47 47 46 45 45 45 45 45 44 42 41 40 39 38 36 34 32 30 29 28 29 29 29 29 28 28 29 29 29 29 28 27 25 23 21 20 20 21
38 43 46 49 50 50 50 50 50 49 50 50 49 49 49 48 47 47 47 46 45 42 39 37 36 35 35 34 33 32 31 31 31 31 30 29 29 28 26 25 22 21 22
46 49 51 53 54 54 54 54 53 53 53 53 53 54 54 54 53 53 52 52 52 51 49 47 45 43 42 40 39 37 36 35 34 33 32 31 31 30 29 27 25 23 22
52 55 56 58 59 59 60 60 60 59 59 59 59 59 59 59 59 58 58 57 57 56 56 55 54 52 50 47 45 42 41 40 38 36 35 34 33 32 31 30 28 25 23
54 57 59 60 62 64 65 66 67 68 68 67 67 66 66 65 65 64 63 62 62 61 60 60 59 59 57 54 51 48 46 44 42 40 38 36 35 34 34 32 30 27 24
57 60 62 64 67 69 71 73 74 75 74 74 73 71 70 69 69 69 69 69 67 66 65 64 63 62 61 59 57 53 51 48 46 44 42 40 37 35 34 33 30 28 25
60 62 65 68 70 73 75 76 77 75 72 69 66 62 60 59 60 62 66 69 71 72 71 69 68 66 65 63 60 58 55 53 50 48 44 42 39 36 35 33 31 29 26
63 66 69 70 72 72 72 71 68 65 61 58 55 52 50 49 48 48 51 56 63 69 73 74 72 71 69 66 63 60 57 55 52 49 46 42 41 39 37 34 31 29 27
65 66 66 65 63 62 61 60 58 57 55 53 51 49 47 45 43 42 40 41 45 53 61 68 72 74 73 71 68 64 61 57 53 50 47 43 41 40 38 36 33 30 27
60 58 57 56 57 58 58 59 58 57 57 55 53 51 48 46 43 40 37 36 35 37 41 47 55 64 69 72 72 69 65 61 56 52 48 45 43 42 40 38 35 31 27
54 54 56 58 59 60 60 60 60 59 59 58 56 53 51 48 46 43 41 38 35 33 32 33 36 43 53 62 68 71 69 66 61 55 50 47 44 43 42 40 37 32 28
53 55 58 60 62 63 63 62 61 61 60 58 56 55 53 51 49 47 44 41 38 36 33 31 30 31 35 42 51 60 66 67 64 60 54 50 47 44 43 42 39 35 29
55 58 60 64 66 66 65 64 63 61 59 57 54 52 52 51 50 48 46 44 42 39 36 35 34 32 31 32 37 43 53 60 63 62 58 54 51 46 44 43 41 37 32
56 59 63 65 66 64 62 60 58 56 53 50 48 47 47 47 48 47 46 45 44 42 39 36 35 34 32 31 31 32 38 47 56 60 59 56 54 49 45 44 42 39 34
57 61 64 65 64 61 58 56 54 51 47 44 42 41 42 43 44 45 43 43 43 42 40 38 36 35 33 31 30 29 30 36 46 55 57 56 54 52 47 45 44 42 37
58 61 64 65 63 60 56 53 50 46 41 37 35 35 35 37 38 40 40 40 40 40 39 37 36 34 33 32 30 27 24 27 39 50 54 54 52 51 49 46 46 44 39
58 61 64 64 62 58 54 51 46 42 36 31 28 26 27 29 31 32 34 35 37 38 37 35 34 33 32 31 30 27 24 20 31 46 52 54 50 49 48 47 46 44 40
57 61 64 64 60 56 53 51 47 42 35 30 26 22 20 21 23 26 27 29 31 33 34 34 33 32 31 30 29 27 23 21 24 41 49 54 52 49 48 47 45 43 39
56 60 63 63 59 54 52 51 48 43 36 29 25 20 16 14 15 17 20 22 25 28 30 31 31 31 31 30 29 27 24 22 22 33 46 51 53 50 48 46 44 42 38
54 58 61 62 58 53 50 51 50 47 40 32 25 18 13 9 9 11 14 17 20 24 26 29 30 31 31 31 29 27 25 23 22 27 40 48 50 50 47 45 44 40 35
Wind_Direction
280 286 293 298 304 305 305 304 298 270 264 271 277 278 285 286 289 292 292 287 282 281 281 280 278 277 274 269 262 257 253 250 250 254 260 266 272 281 284 285 284 281 276
282 287 294 300 306 309 311 314 315 304 304 310 310 305 298 286 282 287 287 280 272 270 269 268 268 268 265 261 258 257 255 252 249 252 256 264 274 283 290 295 292 284 276
287 292 295 299 307 312 315 319 320 324 324 326 326 322 309 291 279 280 283 279 270 264 260 259 258 259 259 255 254 256 258 257 254 254 261 269 279 287 293 297 298 294 283
291 293 295 299 305 311 316 318 318 321 320 319 319 315 306 294 281 275 275 275 271 264 258 254 251 251 252 251 251 254 258 259 261 263 267 270 275 282 290 295 297 297 290
288 291 294 299 304 308 311 313 314 314 314 312 311 306 298 291 285 278 273 271 269 265 260 257 253 251 249 249 249 251 255 258 262 267 273 276 277 279 283 290 294 295 292
286 293 297 301 305 307 308 309 308 308 307 305 303 300 295 290 286 283 277 271 267 264 261 259 258 256 253 251 251 252 255 258 262 266 272 276 280 282 282 283 288 293 294
295 297 300 303 306 307 308 307 305 304 303 300 298 295 290 286 283 280 277 273 270 266 260 256 255 257 258 256 254 254 256 259 262 265 269 273 277 282 285 284 285 289 293
304 303 303 304 305 305 305 304 303 301 298 296 294 291 288 284 280 276 273 271 269 267 263 258 254 253 255 255 255 255 256 258 260 263 267 270 273 277 282 283 283 286 290
307 307 306 305 305 304 303 301 299 296 294 292 290 287 284 281 278 275 272 269 266 264 262 259 256 253 251 251 253 255 256 257 259 261 264 266 270 272 276 279 280 284 288
311 309 308 308 307 305 303 301 299 296 294 291 289 286 283 280 277 273 270 267 265 262 260 258 256 253 251 250 249 251 254 256 258 260 262 265 268 270 271 274 276 280 284
311 310 309 308 307 305 303 301 300 298 295 293 289 286 282 278 275 272 269 266 263 261 258 256 255 254 252 250 248 248 251 254 257 258 260 263 266 267 268 270 272 275 278
312 311 310 308 306 304 302 301 299 297 296 294 291 288 285 281 276 271 267 263 261 259 256 255 254 253 252 250 248 247 247 250 253 256 258 259 263 263 263 265 268 271 273
313 311 309 307 305 303 301 300 299 297 296 294 293 291 289 286 281 275 269 263 258 256 254 253 252 252 251 251 249 247 245 246 248 251 254 255 256 258 259 259 263 265 267
315 313 311 308 306 303 302 300 299 297 295 293 292 291 290 289 287 283 275 266 259 254 252 250 250 250 250 249 248 246 245 244 245 247 249 250 250 252 253 254 257 259 262
316 313 311 310 309 307 305 302 299 297 294 292 291 290 289 288 287 286 284 277 266 258 252 249 247 247 247 247 247 245 243 243 243 243 244 246 246 246 248 250 251 254 257
318 318 317 315 313 310 306 302 299 296 293 290 288 286 284 281 280 280 278 276 272 265 258 252 248 246 245 245 246 245 243 241 241 241 241 242 243 243 243 245 247 248 253
324 322 320 317 314 311 307 302 297 293 290 287 284 282 278 275 273 272 272 270 267 264 261 257 253 250 247 245 244 244 243 240 239 238 237 237 238 239 240 240 242 245 249
327 326 324 322 318 313 308 303 298 294 290 285 281 278 275 271 269 267 266 265 263 260 258 256 256 255 252 248 246 244 242 239 237 235 234 233 234 237 237 237 239 242 246
330 329 327 325 322 317 312 308 303 298 292 286 280 276 273 269 266 263 261 259 258 257 255 253 254 255 256 254 249 246 241 237 234 232 230 231 231 234 235 234 236 238 241
333 333 331 329 326 322 318 315 311 306 299 291 283 275 270 267 264 261 258 255 254 253 252 250 250 250 252 253 251 250 244 236 230 226 225 226 229 231 233 233 233 234 236
338 338 336 334 332 329 325 321 317 312 306 297 287 278 271 266 262 258 255 252 250 249 248 247 247 246 245 245 247 248 247 236 225 218 215 218 223 228 230 231 230 229 232
342 342 342 340 338 335 332 329 325 321 314 305 294 283 274 267 262 258 253 250 247 245 243 243 242 240 239 238 240 242 240 234 219 209 206 208 215 221 226 228 227 226 227
345 346 347 346 344 342 340 338 336 332 326 317 307 292 279 269 261 257 252 247 244 241 239 237 235 234 232 231 233 234 232 231 213 201 199 199 204 212 218 221 221 221 221
348 349 351 351 351 351 351 350 347 343 338 331 321 305 289 275 264 254 248 243 239 235 232 230 228 226 224 224 226 226 225 223 212 200 194 193 196 204 211 214 216 216 217
351 352 354 356 357 358 359 359 357 353 347 339 330 320 302 284 266 251 241 235 230 227 225 222 220 218 217 217 218 219 219 218 214 205 197 192 194 199 205 209 211 212 213
353 355 358 360 1 2 3 5 6 4 0 353 344 334 316 292 266 244 231 224 219 217 216 214 213 213 212 212 214 216 217 216 215 209 202 196 194 197 202 205 208 209 210